Terug naar catalogus

STARLINK-33759

ActiefCommunicatieVLEO
NORAD 64007·PAYLOAD·🇺🇸 United States

Gelanceerd May 14, 2025 vanaf Cape Canaveral Space Force Station

Loading…

Volgende Passages (komende 24 uur)

TLE

VersSource: CelesTrak SupGP

Epoch: Sep 15, 2026, 02:37 UTC

1 64007C 25101P   26258.10951389  .00016314  00000+0  59079-3 0  2580
2 64007  43.0037   7.9968 0001578 267.0671 217.6002 15.27576288    15

Volg STARLINK-33759 in realtime met AllMySat

Download on the App Store